Regional Weather Roundup
Issued by NWS

Home | Current Version | Previous Version | Graphics & Text | Print | Product List | Glossary Off
Versions: 1 2 3 4 5 6 7 8 9 10 11 12 13 14 15 16 17 18 19 20 21 22 23 24 25 26 27 28 29 30 31 32 33 34 35 36 37 38 39 40 41 42 43 44 45 46 47 48 49 50

000
ASUS43 KDMX 020007
RWRIA

WEATHER ROUNDUP FOR IOWA
NATIONAL WEATHER SERVICE DES MOINES IA
700 PM CDT SAT AUG 01 2015

NOTE: "FAIR" INDICATES FEW OR NO CLOUDS BELOW 12,000 FEET WITH NO
SIGNIFICANT WEATHER AND/OR OBSTRUCTIONS TO VISIBILITY.

* - THESE STATIONS ARE NOT NWS STATIONS...THUS NOT UNDER NWS
QUALITY CONTROL.  THEY ALSO DO NOT REPORT WEATHER SUCH
AS PRECIPITATION OR FOG.

IAZ001>003-012>014-020>022-031>034-043>046-020100-
   NORTHWEST IOWA

CITY           SKY/WX    TMP DP  RH WIND       PRES   REMARKS
CARROLL *      SUNNY     81  73  78 S5        29.90F HX  85
CHEROKEE *     SUNNY     81  66  60 S6        29.88F HX  83
DENISON *      SUNNY     81  68  65 S7        29.89S HX  83
LE MARS *      SUNNY     81  68  65 S7        29.88F HX  83
ORANGE CITY *  SUNNY     79  64  61 S6        29.88F HX  81
SHELDON *      SUNNY     81  64  57 SW7       29.86F HX  82
SIOUX CITY     SUNNY     81  68  64 S14       29.88F HX  84
6HR MIN TEMP:  79; 6HR MAX TEMP:  82;

SPENCER        SUNNY     82  63  52 S8        29.88F HX  83
6HR MIN TEMP:  82; 6HR MAX TEMP:  85;

STORM LAKE *   SUNNY     79  68  69 S7        29.91F HX  81
$$

IAZ055>058-069>071-079>083-090>094-020100-
   SOUTHWEST IOWA

CITY           SKY/WX    TMP DP  RH WIND       PRES   REMARKS
ATLANTIC *     SUNNY     81  72  74 S6        29.92F HX  84
AUDUBON *      SUNNY     81  73  78 S5        29.93F HX  85
CLARINDA *     SUNNY     84  75  74 W3        29.95S HX  92
COUNCIL BLFS * SUNNY     81  70  69 S7        29.92F HX  84
CRESTON *      SUNNY     82  73  74 W5        29.96S HX  88
HARLAN  *      SUNNY     81  75  83 S7        29.94F HX  86
LAMONI         MOSUNNY   85  72  65 SW3       29.94S HX  91
6HR MIN TEMP:  82; 6HR MAX TEMP:  90;

RED OAK *      MOSUNNY   81  73  78 S3        29.93F HX  85
SHENANDOAH *   SUNNY     84  73  70 CALM      29.93F HX  91
$$

IAZ047>049-059>061-072>074-084-020100-
   CENTRAL IOWA

CITY           SKY/WX    TMP DP  RH WIND       PRES   REMARKS
AMES           PTSUNNY   83  72  69 SW6       29.91F HX  88
6HR MIN TEMP:  82; 6HR MAX TEMP:  86;

ANKENY *       SUNNY     86  73  66 SW7       29.90F HX  93
CHARITON *     MOSUNNY   84  72  65 SW6       29.93F HX  89
DES MOINES     MOSUNNY   87  70  56 SW8       29.91F HX  92
6HR MIN TEMP:  84; 6HR MAX TEMP:  88;

GRINNELL*      PTSUNNY   81  70  69 S5        29.92F HX  84
KNOXVILLE *    SUNNY     82  72  69 SW5       29.91S HX  87
MARSHALLTOWN   PTSUNNY   82  71  69 SW7       29.90F HX  86
6HR MIN TEMP:  82; 6HR MAX TEMP:  85;

PELLA *        PTSUNNY   83  76  79 SW5       29.92F HX  91
PERRY *          N/A     84  72  65 W6        29.91F HX  89
$$

IAZ004>006-015-016-023>025-035-036-020100-
   NORTH CENTRAL IOWA

CITY           SKY/WX    TMP DP  RH WIND       PRES   REMARKS
ALGONA *       SUNNY     82  64  54 SW9G16    29.89F HX  84
CLARION *      SUNNY     81  72  74 SW6       29.90F HX  84
ESTHERVILLE    SUNNY     80  64  58 SW9       29.86F HX  82
6HR MIN TEMP:  80; 6HR MAX TEMP:  84;

FORT DODGE *   SUNNY     82  70  65 SW5       29.91F HX  86
MASON CITY     SUNNY     83  67  58 SW10      29.90F HX  85
6HR MIN TEMP:  83; 6HR MAX TEMP:  86;

FOREST CITY *  SUNNY     79  66  65 SW6       29.89S HX  81
IOWA FALLS *     N/A     83  70  64 SW3       29.92S HX  86
$$

IAZ007>011-017>019-026>030-037>042-050>054-066-020100-
   NORTHEAST IOWA

CITY           SKY/WX    TMP DP  RH WIND       PRES   REMARKS
CEDAR RAPIDS   PTSUNNY   80  75  84 S5        29.91F HX  85
6HR MIN TEMP:  80; 6HR MAX TEMP:  85;

CHARLES CITY * SUNNY     82  73  74 SW5       29.89F HX  88
CLINTON *      PTSUNNY   79  70  73 SW6       29.94F HX  81
DECORAH *      SUNNY     82  68  61 CALM      29.88F HX  85
DUBUQUE        PTSUNNY   80  71  74 SW7       29.92F HX  84
6HR MIN TEMP:  80; 6HR MAX TEMP:  85;

MONTICELLO *   SUNNY     81  72  74 W5        29.91F HX  84
OELWEIN *      SUNNY     82  72  69 SW6       29.91F HX  87
WATERLOO       PTSUNNY   83  71  67 S8        29.88F HX  87
6HR MIN TEMP:  83; 6HR MAX TEMP:  86;

$$

IAZ064-065-067-068-078-020100-
   EAST CENTRAL IOWA

CITY           SKY/WX    TMP DP  RH WIND       PRES   REMARKS
DAVENPORT      CLOUDY    81  70  69 SW6       29.93F HX  84
6HR MIN TEMP:  81; 6HR MAX TEMP:  85;

IOWA CITY      PTSUNNY   84  70  62 S5        29.93F HX  88
6HR MIN TEMP:  83; 6HR MAX TEMP:  86;

MT. PLEASANT * MOSUNNY   86  69  57 S3        29.93F HX  90
MUSCATINE *    SUNNY     84  72  65 S5        29.92F HX  89
QUAD CITIES    PTSUNNY   82  68  62 SW6       29.92F HX  85
6HR MIN TEMP:  82; 6HR MAX TEMP:  87;

$$

IAZ062-063-075>077-085>089-095>099-020100-
   SOUTHEAST IOWA

CITY           SKY/WX    TMP DP  RH WIND       PRES   REMARKS
BURLINGTON     MOSUNNY   83  73  72 S5        29.94F HX  89
6HR MIN TEMP:  81; 6HR MAX TEMP:  86;

FAIRFIELD *    SUNNY     84  70  61 S3        29.93F HX  88
FORT MADISON * SUNNY     82  73  74 CALM      29.95F HX  88
KEOKUK *       SUNNY     84  73  70 S3        29.94S HX  91
OSKALOOSA *      N/A     83  73  72 CALM      29.92F HX  88
CENTERVILLE *  MOSUNNY   82  73  74 S3        29.95F HX  88
OTTUMWA        MOSUNNY   84  74  71 S3        29.91F HX  91
6HR MIN TEMP:  81; 6HR MAX TEMP:  86;

WASHINGTON *   SUNNY     82  73  74 S3        29.94F HX  88
$$

ABBREVIATIONS USED IN REMARKS
   TC - TEMPERATURES IN CELSIUS
  WCI - WIND CHILL INDEX
   HX - HEAT INDEX
  VSB - VISIBILITY
$$




USA.gov is the U.S. government's official web portal to all federal, state and local government web resources and services.